Location: Pasarilla del Rebollar
(40.6790°N, 5.0062°W)
Time: 10:35:46
(UTC+00:00)

Cosmos 2333 Rocket - Pass Details

Date: 22 April 2026
Orbit: 841 x 861 km, 70.8° (Epoch: 20 May)

Event Time Altitude Azimuth Distance (km) Brightness Sun altitude
Rises 02:30:28 0° 336° (NNW) 3,410 5.7 -29.0°
Reaches altitude 10° 02:32:55 10° 337° (NNW) 2,474 4.9 -28.7°
Maximum altitude 02:38:37 84° 66° (ENE) 858 2.1 -28.0°
Enters shadow 02:38:59 78° 125° (SE) 871 2.1 -28.0°
